Probability
0 0 0 0 0 0 0 0 0 0 0 0 0 0 0 0 0 1 1 2 3 3 3 3 2 2 2 1 2 3 3 3 3 3 2 1 0 0 1 1 0 1 2
1 0 0 0 0 0 0 0 0 0 0 0 0 0 0 0 1 2 2 2 3 3 3 3 2 1 1 1 2 3 3 3 2 2 1 0 0 0 1 1 0 1 2
1 0 0 0 0 0 0 0 0 0 0 0 0 0 0 0 1 2 2 2 2 2 4 4 3 1 0 1 1 2 3 3 3 2 1 1 0 1 1 1 1 1 2
1 0 0 0 0 0 0 0 0 0 0 0 0 0 0 0 1 1 1 1 0 1 3 4 4 3 1 1 1 2 2 2 3 3 3 2 2 2 2 2 2 3 3
0 0 0 0 0 0 0 0 0 0 0 0 0 0 0 0 0 0 0 0 0 0 1 2 3 3 3 3 3 2 2 1 1 2 3 3 3 3 3 3 3 3 3
0 0 0 0 1 1 1 2 1 1 0 0 0 0 0 0 0 0 0 0 0 0 0 0 1 2 3 3 3 3 2 1 1 1 1 2 3 3 3 3 3 3 3
0 0 0 0 1 2 2 3 3 2 1 0 0 0 0 0 0 0 0 0 0 0 0 0 0 1 1 2 3 3 3 3 2 1 1 1 2 2 2 3 3 3 2
0 1 1 1 1 1 1 2 2 2 1 0 0 0 0 0 0 0 0 0 0 0 0 0 0 1 1 1 1 2 2 3 4 4 2 1 1 1 1 2 2 2 2
1 2 2 1 0 0 0 1 1 1 0 0 0 0 0 0 0 0 0 0 0 0 0 0 0 1 1 1 0 1 1 2 4 5 4 3 1 1 1 2 2 2 2
3 2 1 1 0 0 0 0 0 0 0 0 0 0 0 0 0 0 0 0 0 0 0 0 0 1 1 1 0 0 0 1 2 4 5 5 4 2 1 1 1 1 1
2 2 1 0 0 0 0 0 0 0 0 0 0 0 0 0 0 0 0 0 0 0 0 0 0 0 0 0 0 0 0 0 1 3 5 6 5 3 1 1 0 0 0
1 1 0 0 0 1 1 0 0 0 0 0 0 0 0 0 0 0 0 0 0 0 0 0 0 0 0 0 0 0 0 0 1 2 3 4 3 2 1 1 0 0 1
0 0 0 0 1 2 2 1 0 0 0 0 0 0 0 0 0 0 0 0 0 0 0 0 0 0 0 0 0 0 0 0 0 0 1 1 1 0 1 1 0 0 1
0 0 0 0 2 3 3 1 0 0 0 0 0 0 0 0 0 0 0 0 0 0 0 0 0 0 0 0 0 0 0 0 0 0 0 0 0 0 0 0 0 0 1
0 0 0 1 2 3 3 2 1 0 0 0 0 0 0 0 0 0 0 0 0 0 0 0 0 0 0 0 0 0 0 0 0 0 0 0 0 0 0 0 0 0 0
0 0 1 2 3 3 3 3 1 0 0 0 0 0 0 0 0 0 0 0 0 0 0 0 0 0 0 0 0 0 0 0 0 0 0 0 0 0 0 0 0 0 0
1 1 2 3 4 4 4 3 2 1 1 1 0 0 0 0 0 0 0 0 0 0 0 0 0 0 0 0 0 0 0 0 0 0 0 0 0 0 0 0 0 0 0
5 4 4 5 6 6 5 4 3 3 3 3 2 1 0 0 0 0 0 0 0 0 0 0 0 0 0 0 0 0 0 0 0 0 0 0 0 0 0 0 0 0 0
8 7 7 7 8 9 8 7 5 5 5 5 5 3 2 2 1 0 0 0 0 1 1 2 1 0 0 1 0 0 0 0 0 0 0 0 0 0 0 0 0 0 0
10 10 10 10 11 13 12 11 9 8 8 8 8 7 5 5 4 2 1 1 1 2 3 3 2 1 0 0 0 0 0 0 0 0 0 0 0 0 0 0 0 0 0
12 13 13 12 13 14 14 14 14 13 12 12 12 10 8 7 6 3 2 2 3 3 3 3 3 1 0 0 0 0 0 0 0 0 0 0 0 0 0 0 0 0 0
16 16 15 13 12 12 13 14 15 15 15 15 15 13 10 8 7 4 3 3 3 3 3 3 3 2 1 0 0 0 0 0 0 0 0 0 0 0 0 0 0 0 0
20 20 17 14 12 11 11 11 12 14 15 15 15 13 11 9 8 5 3 2 2 2 3 3 3 3 1 0 0 0 0 0 0 0 0 0 0 0 0 0 0 0 0
22 21 19 16 14 12 10 7 8 13 15 14 13 12 10 9 7 4 2 2 2 2 2 2 3 3 2 0 0 0 0 0 0 0 0 0 0 0 0 0 0 0 0
21 20 19 18 17 14 11 7 8 13 15 14 12 10 8 7 5 2 1 1 2 2 1 1 1 2 1 0 0 0 0 0 0 0 0 0 0 0 0 0 0 0 0
19 18 18 19 18 16 13 9 9 14 16 14 12 9 7 5 3 1 0 0 1 1 0 0 0 1 0 0 0 0 0 0 0 0 0 0 0 0 0 0 0 0 0
Wind_Speed
3 2 2 2 2 1 2 2 2 1 1 1 1 1 2 2 3 3 2 9 10 10 11 12 11 11 10 11 11 11 11 10 10 10 10 10 9 9 8 9 9 8 8
3 3 2 2 2 2 2 2 2 2 1 1 1 1 2 2 3 3 2 4 7 8 9 9 10 10 9 10 10 11 11 11 10 10 10 9 9 9 9 9 9 9 9
3 3 2 1 1 2 2 1 1 1 1 1 1 1 2 2 3 3 3 2 2 5 7 8 7 7 7 8 9 9 10 10 10 10 10 10 9 9 9 9 8 9 9
3 2 2 1 1 2 2 2 1 1 1 1 1 1 1 2 3 3 2 2 1 1 3 5 5 5 6 7 7 8 8 9 9 9 10 10 10 10 9 9 9 8 8
2 2 2 1 2 2 1 1 1 2 2 1 1 1 1 1 1 2 2 2 1 1 1 2 3 4 4 4 5 6 6 7 8 8 9 9 9 8 8 9 9 9 9
2 2 2 1 2 2 1 1 1 1 1 2 2 2 1 1 1 1 2 2 1 1 1 1 0 1 1 1 1 3 4 6 7 7 7 7 7 7 8 8 8 8 9
2 2 2 1 2 2 1 1 1 1 1 2 3 2 2 2 2 1 1 2 2 2 2 2 1 1 1 2 1 0 2 4 5 6 6 6 6 7 7 7 7 8 8
2 2 2 2 2 2 2 2 2 1 1 1 2 2 2 3 3 3 2 2 2 1 2 2 2 2 1 1 2 2 0 2 4 5 6 5 5 5 6 7 7 7 8
2 2 3 2 2 2 2 2 2 2 1 0 1 3 3 2 0 2 2 2 2 2 1 1 2 2 2 1 2 2 3 2 1 3 5 5 4 4 5 6 6 6 7
1 2 2 2 2 2 2 1 2 1 2 1 0 0 2 3 3 1 1 1 1 2 1 2 2 1 2 1 2 3 4 4 3 4 4 4 4 3 4 4 5 5 5
1 2 2 2 2 1 2 1 1 1 1 2 1 1 1 1 2 3 1 0 1 1 1 1 2 1 1 1 1 3 4 4 5 4 4 3 3 3 3 3 3 4 4
0 1 2 1 1 2 2 1 1 2 1 1 1 1 2 1 2 2 2 1 1 0 1 1 1 1 1 0 1 4 4 4 4 4 4 3 3 3 3 3 2 2 3
0 1 1 1 1 1 2 2 2 1 1 1 1 1 1 1 2 2 3 2 1 0 1 1 0 1 1 0 0 3 3 4 4 4 4 4 3 3 3 3 3 3 3
2 1 1 2 2 2 2 2 2 1 2 2 2 1 1 1 1 2 3 3 2 0 0 1 0 0 0 1 1 2 1 4 4 4 4 4 4 4 4 4 4 4 4
1 1 2 2 2 2 2 3 2 1 2 1 2 2 1 1 1 1 2 3 4 2 1 1 1 0 0 1 1 1 1 3 3 3 3 3 4 4 4 5 5 5 4
1 2 2 2 2 2 2 2 2 1 2 1 1 2 1 1 1 1 2 2 2 4 2 2 2 1 1 2 2 1 1 3 3 3 2 3 3 3 3 4 4 4 4
2 3 3 3 2 2 2 2 1 1 2 1 1 1 1 1 1 1 1 2 1 2 3 1 1 1 2 1 1 1 1 1 1 3 3 3 3 3 3 3 3 3 4
3 3 3 3 3 2 2 2 2 2 2 1 1 1 0 1 1 1 2 2 2 2 3 3 1 1 2 2 2 2 2 2 1 3 4 3 3 3 3 3 3 3 3
3 3 3 3 2 2 2 2 2 2 2 2 2 2 1 2 1 1 1 2 1 2 2 3 2 1 1 1 1 1 1 1 2 3 4 4 4 4 4 4 4 4 3
4 3 3 3 3 3 2 2 2 2 2 2 2 2 2 2 2 2 2 2 2 2 2 2 2 1 1 1 2 1 1 1 2 2 2 3 4 5 5 5 5 5 5
4 4 3 3 2 2 2 3 3 3 2 2 2 2 2 3 3 3 2 3 3 2 2 2 2 1 1 2 3 2 2 1 1 1 1 2 2 2 3 5 6 7 6
4 4 3 3 3 2 3 5 4 2 2 2 2 2 2 2 2 2 3 5 6 5 4 3 3 3 4 3 3 3 2 1 2 2 2 2 2 3 3 3 6 8 8
4 4 4 4 3 4 5 5 5 3 3 3 3 2 1 1 2 1 2 2 3 4 7 6 5 5 5 5 4 4 4 4 4 3 3 3 2 3 4 5 8 9 9
4 4 4 4 4 4 5 6 6 3 2 3 3 3 3 2 3 3 2 1 1 2 4 4 5 6 5 5 6 6 5 3 2 1 3 3 3 3 4 4 8 10 11
4 4 4 4 4 4 5 6 5 3 2 3 2 3 3 3 5 5 3 2 2 3 3 4 5 5 5 6 5 3 2 2 2 3 2 3 2 2 2 3 5 9 11
5 4 4 4 4 4 5 6 7 3 3 2 2 2 4 5 5 6 4 4 3 4 2 2 2 3 4 5 7 6 5 4 2 3 4 3 2 2 2 3 3 3 5
Wind_Direction
147 153 153 160 172 169 170 158 171 177 192 218 209 171 164 164 144 147 160 172 177 182 185 189 189 192 197 202 205 206 204 201 202 203 204 207 207 202 199 199 196 194 194
145 148 153 162 169 173 171 167 176 174 187 174 172 171 159 144 138 146 145 172 184 187 190 190 193 197 202 205 207 207 207 205 205 206 206 207 206 203 199 198 201 201 199
135 139 141 150 165 156 154 152 155 145 146 130 108 109 138 137 139 142 147 167 189 192 191 191 194 196 201 208 211 209 209 209 207 207 209 208 202 200 200 201 203 200 195
129 120 126 156 159 140 141 147 138 116 101 103 77 62 101 123 134 144 144 147 159 187 198 191 190 199 207 209 214 211 209 210 209 209 208 206 205 203 203 202 202 201 197
131 126 144 153 137 130 134 158 140 139 139 136 130 86 69 114 140 140 133 136 168 179 190 186 197 210 212 212 210 208 210 210 206 207 207 206 207 205 201 202 204 204 202
127 129 138 129 127 120 111 108 125 121 154 157 119 76 46 55 88 111 141 141 145 155 147 119 64 40 114 133 197 207 210 206 199 197 200 200 200 201 200 203 207 205 205
134 115 118 108 110 124 143 138 117 97 85 112 88 51 22 28 40 47 81 96 96 103 102 98 80 51 41 63 63 177 201 194 188 187 189 189 192 196 197 199 203 204 203
134 124 116 118 120 121 109 108 104 104 98 116 122 105 47 9 15 36 59 95 90 79 90 99 92 84 58 16 22 39 63 182 187 188 187 186 187 187 188 194 198 200 200
110 109 123 120 117 124 130 135 122 126 143 238 133 139 144 189 301 360 34 66 86 82 79 91 105 97 91 51 21 27 57 75 150 165 163 161 161 167 180 184 189 194 200
99 114 121 118 122 126 133 150 131 127 136 158 301 129 152 152 146 127 2 20 76 89 91 103 93 84 87 75 66 71 74 67 76 110 133 145 147 151 162 175 180 183 190
86 111 119 116 128 134 134 118 110 114 132 149 155 136 90 84 112 138 168 300 36 23 62 102 105 101 91 80 74 82 85 74 74 86 97 113 133 140 146 164 180 186 184
35 98 121 120 130 132 135 135 120 123 120 120 124 130 140 144 165 144 157 166 158 346 46 82 114 125 116 90 114 102 96 84 79 83 88 92 108 116 130 139 139 140 154
185 226 133 123 127 137 134 120 108 109 109 112 132 153 140 152 153 142 135 147 141 168 61 38 117 157 151 108 98 115 105 99 91 89 92 97 96 94 98 106 105 107 113
200 188 141 125 121 118 110 102 90 100 85 84 83 97 99 107 123 137 146 141 122 59 26 262 330 235 145 137 107 121 110 113 109 106 109 106 99 93 89 92 91 92 100
178 154 140 132 124 116 112 107 92 89 91 85 84 88 86 68 84 113 134 142 143 152 214 237 240 257 204 138 127 116 114 120 119 111 110 109 103 100 96 96 93 90 93
156 140 136 136 129 121 117 109 107 110 104 82 97 88 72 68 94 93 125 126 132 146 173 215 211 205 193 173 165 146 155 146 147 140 130 119 114 108 106 109 106 102 101
156 148 143 141 138 136 130 124 139 128 119 92 75 101 90 106 114 120 118 116 121 130 145 210 219 174 159 173 162 178 161 170 195 177 162 141 124 118 120 123 121 117 116
163 159 151 150 157 158 153 151 166 148 144 149 152 116 109 122 119 140 140 149 149 142 142 166 192 172 191 189 182 195 192 190 204 197 186 183 177 166 153 143 140 137 134
167 163 155 161 169 169 171 177 172 171 175 177 172 165 177 137 140 161 153 153 159 142 134 148 174 191 202 181 154 220 193 204 213 199 197 207 203 200 193 180 167 159 160
172 175 175 175 176 176 177 185 175 179 185 187 184 182 181 173 181 178 163 164 150 133 133 141 158 183 194 189 154 192 238 249 231 210 208 210 215 214 210 201 192 183 182
183 181 172 176 176 171 187 185 183 178 179 187 196 202 193 180 179 179 169 169 154 148 150 153 168 168 198 182 198 199 208 224 259 218 206 230 219 231 231 223 212 204 202
181 170 171 176 184 196 190 179 170 178 181 182 202 227 213 180 187 182 172 173 172 169 177 175 186 199 214 208 194 189 179 163 252 233 184 236 200 228 238 231 224 217 215
179 178 184 182 194 205 194 187 185 177 187 200 203 201 210 202 188 172 171 169 192 197 187 182 191 209 207 204 185 192 196 196 217 210 170 230 222 234 239 235 225 221 217
183 188 195 197 200 212 199 196 193 185 193 211 210 201 201 200 207 191 179 189 243 242 220 204 204 214 209 203 196 196 198 205 242 222 167 207 220 227 239 235 228 219 217
187 191 194 198 204 224 209 203 188 181 199 225 229 215 206 205 218 194 173 198 258 282 264 232 218 219 217 208 189 161 165 169 237 249 200 188 217 225 240 241 236 222 219
193 190 201 206 206 216 212 204 189 178 198 226 239 240 222 216 214 196 188 192 222 249 257 276 259 251 241 226 206 192 187 188 207 238 216 186 202 175 248 254 232 224 223